Location: Namasale
(1.5000°N, 32.6167°E)
Time: 16:51:05
(UTC+00:00)

GPS 2-15 Rocket1 - Pass Details

Date: 09 April 2020
Orbit: 624 x 675 km, 19.8° (Epoch: 26 May)

Event Time Altitude Azimuth Distance (km) Brightness Sun altitude
Rises 17:22:15 0° 306° (NW) 3,002 7.6 -22.4°
Reaches altitude 10° 17:24:54 10° 316° (NW) 2,087 6.5 -23.0°
Maximum altitude 17:29:15 31° 18° (NNE) 1,164 4.3 -24.1°
Enters shadow 17:29:15 31° 19° (NNE) 1,164 4.3 -24.1°
